Location: Aufkirchen
(47.9603°N, 11.3653°E)
Time: 17:10:07
(UTC+01:00)

Transit 2A - Pass Details

Date: 05 December 2020
Orbit: 599 x 960 km, 66.7° (Epoch: 26 January)

Event Time Altitude Azimuth Distance (km) Brightness Sun altitude
Rises 23:59:57 0° 327° (NNW) 3,325 - -64.4°
Reaches altitude 10° 00:02:36 10° 333° (NNW) 2,330 - -64.4°
Maximum altitude 00:07:41 46° 46° (NE) 965 - -64.4°
Drops below altitude 10° 00:12:16 10° 121° (ESE) 2,098 - -64.4°
Sets 00:14:32 0° 127° (SE) 2,962 - -64.4°
